This is the latest recevied weather packets stored in our database for station/object K8FJG-13. If no packets are shown the sender has not sent any weather packets the latest 10 day(s).
| Time | Temp. | Humidity | Pressure | Rain* | Wind** | Luminosity | Snow |
|---|---|---|---|---|---|---|---|
| 1787403045 | 19.44° C | 89% | 970.1 hPa | - | - | - | - |
| 1787402441 | 18.89° C | 91% | 970.1 hPa | - | - | - | - |
| 1787401838 | 18.33° C | 92% | 970.2 hPa | - | - | - | - |
| 1787401235 | 17.78° C | 92% | 970.2 hPa | - | - | - | - |
| 1787400632 | 17.78° C | 94% | 970.4 hPa | - | - | - | - |
| 1787400029 | 17.22° C | 95% | 970.4 hPa | - | - | - | - |
| 1787399426 | 16.67° C | 96% | 970.4 hPa | - | - | - | - |
| 1787398822 | 16.11° C | 96% | 970.3 hPa | - | - | - | - |
| 1787398219 | 16.11° C | 96% | 970.3 hPa | - | - | - | - |
| 1787397616 | 16.11° C | 96% | 970.4 hPa | - | - | - | - |
| 1787397013 | 16.11° C | 96% | 970.3 hPa | - | - | - | - |
| 1787396410 | 16.11° C | 96% | 970.3 hPa | - | - | - | - |
| 1787395807 | 16.11° C | 96% | 970.3 hPa | - | - | - | - |
| 1787395204 | 16.67° C | 96% | 970.4 hPa | - | - | - | - |
| 1787394601 | 17.22° C | 97% | 970.6 hPa | - | - | - | - |
| 1787393998 | 17.22° C | 96% | 971 hPa | - | - | - | - |
| 1787393395 | 17.22° C | 96% | 970.7 hPa | - | - | - | - |
| 1787392791 | 17.22° C | 96% | 970.6 hPa | - | - | - | - |
| 1787392188 | 17.22° C | 95% | 970.4 hPa | - | - | - | - |
| 1787391585 | 17.22° C | 94% | 970.5 hPa | - | - | - | - |
| 1787390982 | 17.22° C | 93% | 970.6 hPa | - | - | - | - |
| 1787390378 | 17.78° C | 91% | 970.9 hPa | - | - | - | - |
| 1787389775 | 18.33° C | 86% | 971 hPa | - | - | - | - |
| 1787389172 | 18.89° C | 86% | 971.3 hPa | - | - | - | - |
| 1787388569 | 18.89° C | 84% | 971.4 hPa | - | - | - | - |
* Rain since midnight (hover to see other rain measurements)
** Current wind speed in m/s (hover to see current wind gust speed)